Weather History for KAST - October, 2012

Change the Weather History Date:

Wednesday, October 10, 2012

  Actual Average Record
Temperature  
Mean Temperature 51 °F 54 °F  
Max Temperature 60 °F 63 °F 83 °F (1991)
Min Temperature 42 °F 45 °F 34 °F (1983)
Degree Days  
Heating Degree Days 14 11  
Month to date heating degree days 110 103  
Since 1 July heating degree days 617 584  
Cooling Degree Days 0 0  
Month to date cooling degree days 0 0  
Year to date cooling degree days 25 12  
Growing Degree Days 3 (Base 50)    
Moisture  
Dew Point 46 °F    
Average Humidity 80    
Maximum Humidity 100    
Minimum Humidity 60    
Precipitation  
Precipitation 0.00 in 0.16 in 2.03 in (1995)
Month to date precipitation 0.02 1.32  
Year to date precipitation 49.73 41.56  
Snow  
Snow 0.00 in - - ()
Month to date snowfall 0.0  
Snow Depth 0.00 in    
Sea Level Pressure  
Sea Level Pressure 30.02 in    
Wind  
Wind Speed 4 mph (SSE)    
Max Wind Speed 14 mph    
Max Gust Speed 16 mph    
Visibility 7 miles    
Events      
T = Trace of Precipitation, MM = Missing Value Source: NWS Daily Summary

Daily Weather History Graph

Daily Weather History Graph

Search for Another Location

Airport or City:

Trip Planner

Search our weather history database for the weather conditions in past years. The results will help you decide how hot, cold, wet, or windy it might be!

Date:

Astronomy

Oct. 10, 2012 Rise Set
Actual Time 7:26 AM PDT 6:37 PM PDT
Civil Twilight 6:56 AM PDT 7:07 PM PDT
Nautical Twilight 6:21 AM PDT 7:41 PM PDT
Astronomical Twilight 5:47 AM PDT 8:16 PM PDT
Moon 1:52 AM PDT (10/10) 3:57 PM PDT (10/10)
Length of Visible Light 12h 10m
Length of Day
11h 10m
Waning Crescent, 26% of the Moon is Illuminated
Oct 10
Waning Crescent
Oct 15
New
Oct 21
First Quarter
Oct 29
Full
Nov 6
Last Quarter

Hourly Weather History & Observations

Time (PDT) Temp. Windchill Dew Point Humidity Pressure Visibility Wind Dir Wind Speed Gust Speed Precip Events Conditions
12:32 AM 42.8 °F 40.1 °F 42.8 °F 100% 30.04 in 9.0 mi SSE 4.6 mph - N/A   Scattered Clouds
12:55 AM 43.0 °F 41.3 °F 42.1 °F 97% 30.04 in 9.0 mi SE 3.5 mph - N/A   Partly Cloudy
1:09 AM 42.8 °F 40.1 °F 41.0 °F 93% 30.04 in 10.0 mi SE 4.6 mph - N/A   Mostly Cloudy
1:16 AM 42.8 °F 41.1 °F 42.8 °F 100% 30.04 in 9.0 mi SE 3.5 mph - N/A   Scattered Clouds
1:55 AM 43.0 °F - 42.1 °F 97% 30.04 in 9.0 mi Calm Calm - N/A   Partly Cloudy
2:10 AM 42.8 °F - 39.2 °F 87% 30.04 in 8.0 mi Calm Calm - N/A   Mostly Cloudy
2:30 AM 42.8 °F - 41.0 °F 93% 30.04 in 9.0 mi Calm Calm - N/A   Overcast
2:55 AM 44.1 °F 42.5 °F 42.1 °F 93% 30.04 in 9.0 mi SE 3.5 mph - N/A   Overcast
3:55 AM 45.0 °F - 44.1 °F 97% 30.04 in 9.0 mi Calm Calm - N/A   Overcast
4:39 AM 46.4 °F 43.5 °F 44.6 °F 93% 30.03 in 1.8 mi SSE 5.8 mph - N/A   Overcast
4:50 AM 46.4 °F 44.3 °F 46.4 °F 100% 30.03 in 1.0 mi SSE 4.6 mph - N/A   Overcast
4:55 AM 46.0 °F - 46.0 °F 100% 30.04 in 0.8 mi Calm Calm - N/A   Overcast
5:09 AM 46.4 °F 45.2 °F 46.4 °F 100% 30.03 in 0.8 mi SSE 3.5 mph - N/A   Mist
5:49 AM 46.4 °F 43.5 °F 46.4 °F 100% 30.03 in 1.5 mi SSE 5.8 mph - N/A   Overcast
5:55 AM 46.9 °F - 46.9 °F 100% 30.03 in 3.0 mi SSE 5.8 mph - N/A   Overcast
6:55 AM 46.9 °F - 46.9 °F 100% 30.04 in 5.0 mi South 4.6 mph - N/A   Overcast
7:55 AM 46.9 °F - 46.9 °F 100% 30.04 in 4.0 mi ESE 3.5 mph - N/A   Overcast
8:34 AM 48.2 °F - 46.4 °F 93% 30.05 in 2.5 mi South 3.5 mph - N/A   Overcast
8:52 AM 48.2 °F - 46.4 °F 93% 30.05 in 3.0 mi SE 3.5 mph - N/A   Overcast
8:55 AM 48.0 °F - 46.9 °F 96% 30.05 in 3.0 mi SSE 3.5 mph - N/A   Overcast
9:09 AM 48.2 °F - 46.4 °F 93% 30.05 in 2.5 mi SE 3.5 mph - N/A   Overcast
9:17 AM 48.2 °F - 46.4 °F 93% 30.05 in 3.0 mi SE 4.6 mph - N/A   Overcast
9:32 AM 48.2 °F - 48.2 °F 100% 30.05 in 4.0 mi SSE 3.5 mph - N/A   Overcast
9:55 AM 48.9 °F - 48.0 °F 97% 30.05 in 5.0 mi Calm Calm - N/A   Overcast
10:21 AM 48.2 °F - 48.2 °F 100% 30.05 in 5.0 mi SE 3.5 mph - N/A   Overcast
10:41 AM 50.0 °F - 48.2 °F 94% 30.05 in 6.0 mi Calm Calm - N/A   Overcast
10:55 AM 50.0 °F - 48.0 °F 93% 30.05 in 7.0 mi ESE 4.6 mph - N/A   Overcast
11:55 AM 53.1 °F - 46.9 °F 80% 30.04 in 10.0 mi SE 3.5 mph - N/A   Overcast
12:51 PM 57.2 °F - 46.4 °F 67% 30.03 in 10.0 mi Variable 3.5 mph - N/A   Scattered Clouds
12:55 PM 57.9 °F - 46.0 °F 65% 30.03 in 10.0 mi North 5.8 mph - N/A   Scattered Clouds
1:55 PM 57.9 °F - 46.0 °F 65% 30.01 in 10.0 mi North 5.8 mph - N/A   Clear
2:55 PM 59.0 °F - 46.9 °F 64% 29.99 in 10.0 mi Variable 4.6 mph - N/A   Scattered Clouds
3:55 PM 60.1 °F - 46.9 °F 62% 29.97 in 10.0 mi NW 9.2 mph - N/A   Clear
4:55 PM 59.0 °F - 48.2 °F 67% 29.97 in 10.0 mi NW 8.1 mph - N/A   Clear
5:55 PM 55.9 °F - 46.9 °F 72% 29.96 in 10.0 mi NW 10.4 mph - N/A   Clear
6:55 PM 53.1 °F - 48.0 °F 83% 29.96 in 10.0 mi WNW 9.2 mph - N/A   Clear
7:55 PM 50.0 °F - 46.9 °F 89% 29.97 in 10.0 mi WNW 4.6 mph - N/A   Clear
8:55 PM 48.0 °F - 46.0 °F 93% 29.97 in 10.0 mi Calm Calm - N/A   Scattered Clouds
9:04 PM 48.2 °F - 46.4 °F 93% 29.97 in 10.0 mi Calm Calm - N/A   Mostly Cloudy
9:55 PM 48.0 °F - 46.0 °F 93% 29.97 in 10.0 mi SSE 4.6 mph - N/A   Overcast
10:52 PM 46.4 °F 45.2 °F 44.6 °F 93% 29.97 in 10.0 mi SE 3.5 mph - N/A   Scattered Clouds
10:55 PM 46.9 °F - 45.0 °F 93% 29.97 in 10.0 mi SE 3.5 mph - N/A   Partly Cloudy
11:55 PM 45.0 °F 43.5 °F 44.1 °F 97% 29.97 in 10.0 mi SSE 3.5 mph - N/A   Clear